전체상품목록 바로가기

본문 바로가기


0

이전 제품다음 제품

맨위로


현재 위치

  1. 게시판
  2. 자료실

자료실

자료실

게시판 목록
번호 카테고리 제목 작성자 작성일 조회 추천 평점
87 KY-3000 사용설명서 파일첨부 관리자 2017-11-06 203 0 0점
86 KY-3000 셋팅하는 방법 파일첨부 관리자 2017-05-16 156 0 0점
85 FOH가 무슨말인가요? 파일첨부 음향팀 2017-05-05 184 0 0점
84 UPT 7292MP/타임벨(시보기)메뉴얼 파일첨부 김희근 2017-04-10 138 2 0점
83 A/V 학교방송시스템 블럭도 설계팀 2016-01-29 171 2 0점
82 디지털방송시스템 블럭도(공장용) 설계팀 2016-01-29 185 2 0점
81 디지털전관방송시스템 블럭도(아파트) 설계팀 2016-01-29 142 1 0점
80 디지털전관방송시스템 블럭도(주상복합) 설계팀 2016-01-29 92 2 0점
79 디지털 전관방송시스템 블럭도(빌딩용) 설계팀 2016-01-29 278 2 0점
78 믹서사용방법(레벨셋팅) 음향팀 2015-02-06 492 3 0점
77 하울링잡는법 음향팀 2015-02-06 902 1 0점
76 EQ주파수 튜닝법 음향팀 2015-02-06 339 2 0점
75 콘솔 EQ 조절법 음향팀 2015-02-06 497 3 0점
74 HD 영상 시스템 블럭도 영상팀 2013-09-03 136 1 0점
73 HD 영상 시스템(학교용) 영상팀 2013-09-03 124 1 0점
72 S-VHS 관리팀 2013-03-04 127 2 0점
71 Stereo 관리팀 2013-03-04 88 1 0점
70 RCA란? 관리팀 2013-03-04 155 2 0점
69 Phone Plug 란? 관리팀 2013-03-04 102 2 0점
68 XLR 이란? 관리팀 2013-03-04 126 1 0점
67 CAD File을 볼 수있는 CAD Viewer 입니다. 파일첨부 관리자 2013-01-07 252 2 0점
66 [Yamaha] MG102c MG124c MG166c MG206c 한글메뉴얼 파일첨부 관리자 2013-01-07 313 1 0점
65 [Yamaha] MG24/14FX MG32/14FX 한글매뉴얼 파일첨부 관리자 2013-01-07 325 1 0점
64 [Behringer] UB1204FX-PRO_영문메뉴얼 파일첨부 관리자 2013-01-07 178 2 0점
63 [Behringer] UB1222FX-PRO_영문메뉴얼 파일첨부 관리자 2013-01-07 180 2 0점
62 [Behringer] UB(2442,2222,1832,1622)FX-PRO_영문메뉴얼 파일첨부 관리자 2013-01-07 133 3 0점
61 [Behringer] UB2442FX-PR0 한글매뉴얼 파일첨부 관리자 2013-01-07 190 1 0점
60 [Musikelement] MW series 무선마이크 한글 매뉴얼 파일첨부 관리자 2013-01-07 168 1 0점
59 [SHURE] FP series 한글매뉴얼 파일첨부 관리자 2013-01-07 117 1 0점
58 [Behringer] DIGITAL MIXER X32 한글메뉴얼 파일첨부 관리자 2013-01-07 316 1 0점
57 [Behringer] DCX2496 소프트웨어 파일첨부 관리자 2013-01-07 122 0 0점
56 [Behringer] EPA900 한글메뉴얼 파일첨부 관리자 2013-01-07 200 1 0점
55 [Behringer] iNUKE NU시리즈 앰프용 DSP컨트롤 소프트웨어 파일첨부 관리자 2013-01-07 118 1 0점
54 [Behringer] XENYX X시리즈 믹서 USB드라이버 파일첨부 관리자 2013-01-07 149 1 0점
53 [Behringer] DEQ2496 PC용 컨트롤러 소프트웨어 파일첨부 관리자 2013-01-07 148 2 0점
52 [Behringer] B212A, B215A 한글매뉴얼 파일첨부 관리자 2013-01-07 165 0 0점
51 디지털 영상과 사운드 규격 설명 관리자 2012-12-31 250 1 0점
50 AW-PH360 파일첨부 관리자 2012-12-29 132 1 0점
49 AW-HE50 파일첨부 관리자 2012-12-29 138 1 0점
48 AG-AF100 파일첨부 관리자 2012-12-29 147 2 0점
47 AJ-HPX3100 파일첨부 관리자 2012-12-29 159 1 0점
46 AJ-HPX2100 파일첨부 관리자 2012-12-29 121 1 0점
45 TEST 파일첨부 김희근 2012-12-29 110 3 0점
44 AG-HPX371 파일첨부 관리자 2012-12-29 111 2 0점
43 AG-HPX170 메뉴얼 파일첨부 관리자 2012-12-29 111 2 0점
42 AG-HMC150 메뉴얼 파일첨부 관리자 2012-12-29 105 2 0점
41 타임벨(HR-6872B)사용 설명서 파일첨부[1] 관리자 2012-12-10 316 1 0점
40 파나소닉프로젝터 거리계산프로그램 영상팀 2012-07-23 106 2 0점
39 LCD 와 DLP 의 비교 분석 영상팀 2012-07-05 466 1 0점
38 음향시스템의기본 음향설계팀 2012-07-05 326 2 0점
37 믹서와이큘라이저 음향설계팀 2012-07-05 346 1 0점
36 스피커 (speaker) 의 원리 음향설계팀 2012-07-05 375 1 0점
35 데시벨 (decibel)이란? 음향설계팀 2012-07-05 313 0 0점
34 파워 앰프(Power Amplifier)란? 음향설계팀 2012-07-05 1665 2 0점

글쓰기

이전 페이지

  1. 1
  2. 2

다음 페이지